KB1WCR Weather Reports


time (UTC)temp
F
wind
direction
speed
knots
gust
knots
rain 1hr
in
rain 24hr
in
rain mn
in
humidity
%
barometer
mb
20260901141207 65 77 1.7 3.5 0.00 0.00 0.00 79 1018.5
20260901140706 64 318 0.0 0.0 0.00 0.00 0.00 82 1018.8
20260901140204 64 27 0.0 0.0 0.00 0.00 0.00 83 1018.9
20260901135659 63 310 0.0 0.0 0.00 0.00 0.00 83 1018.7
20260901135154 62 94 0.9 0.9 0.00 0.00 0.00 82 1018.8
20260901134650 62 337 0.0 0.0 0.00 0.00 0.00 85 1018.8
20260901134145 62 313 0.0 0.0 0.00 0.00 0.00 86 1018.6
20260901133644 61 315 0.0 0.0 0.00 0.00 0.00 86 1018.7
20260901133143 61 35 0.0 0.9 0.00 0.00 0.00 86 1018.8
20260901132637 61 304 0.0 0.0 0.00 0.00 0.00 87 1018.9
20260901132132 60 311 0.0 0.0 0.00 0.00 0.00 89 1018.8
20260901131631 60 304 0.0 0.0 0.00 0.00 0.00 88 1018.8
20260901131126 60 296 0.9 0.9 0.00 0.00 0.00 89 1018.9
20260901130621 59 317 0.9 0.9 0.00 0.00 0.00 90 1018.8
20260901130119 59 322 0.0 0.0 0.00 0.00 0.00 90 1018.8
20260901125617 59 331 0.0 0.0 0.00 0.00 0.00 91 1018.6
20260901125108 59 321 0.0 0.0 0.00 0.00 0.00 92 1018.8
20260901124607 58 1 0.9 0.9 0.00 0.00 0.00 92 1019.0
20260901124102 58 324 0.0 0.9 0.00 0.00 0.00 92 1018.9
20260901123557 58 8 1.7 1.7 0.00 0.00 0.00 93 1019.1
20260901123056 58 317 0.0 0.0 0.00 0.00 0.00 94 1018.9
20260901122555 57 301 0.0 0.0 0.00 0.00 0.00 99 1018.8
20260901122055 56 292 0.0 0.0 0.00 0.00 0.00 99 1018.6
20260901121550 56 321 0.0 0.0 0.00 0.00 0.00 99 1018.8
20260901121045 56 288 0.0 0.0 0.00 0.00 0.00 99 1018.6
20260901120545 56 296 0.0 0.0 0.00 0.00 0.00 99 1018.7
20260901120041 56 296 0.0 0.0 0.00 0.00 0.00 99 1018.5
20260901115536 55 302 0.0 0.0 0.00 0.00 0.00 99 1018.7
20260901115033 55 302 0.0 0.0 0.00 0.00 0.00 99 1018.6
20260901114528 55 301 0.0 0.0 0.00 0.00 0.00 99 1018.5
20260901114026 55 310 0.0 0.0 0.00 0.00 0.00 99 1018.6
20260901113525 54 312 0.0 0.0 0.00 0.00 0.00 99 1018.5
20260901113016 54 307 0.0 0.0 0.00 0.00 0.00 99 1018.7
20260901112510 54 307 0.0 0.0 0.00 0.00 0.00 99 1018.4
20260901112005 53 310 0.0 0.0 0.00 0.00 0.00 99 1018.4
20260901111504 53 303 0.0 0.0 0.00 0.00 0.00 99 1018.3
20260901111003 53 303 0.0 0.0 0.00 0.00 0.00 99 1018.4
20260901110458 53 301 0.0 0.0 0.00 0.00 0.00 99 1018.3
20260901105954 53 312 0.0 0.0 0.00 0.00 0.00 99 1018.2
20260901105450 53 311 0.0 0.0 0.00 0.00 0.00 99 1018.3
20260901104950 53 311 0.0 0.0 0.00 0.00 0.00 99 1018.2
20260901104446 53 305 0.0 0.0 0.00 0.00 0.00 99 1018.3
20260901103940 52 303 0.0 0.0 0.00 0.00 0.00 99 1018.1
20260901103435 53 303 0.0 0.0 0.00 0.00 0.00 99 1017.9
20260901102930 53 302 0.0 0.0 0.00 0.00 0.00 99 1018.0
20260901102425 52 302 0.0 0.0 0.00 0.00 0.00 99 1017.8
20260901101919 51 312 0.0 0.0 0.00 0.00 0.00 99 1017.7
20260901101415 51 309 0.0 0.0 0.00 0.00 0.00 99 1017.8
20260901100914 51 312 0.0 0.0 0.00 0.00 0.00 99 1017.9
20260901100408 51 320 0.0 0.0 0.00 0.00 0.00 99 1017.8
20260901095902 51 312 0.0 0.0 0.00 0.00 0.00 99 1017.9
20260901095401 51 316 0.0 0.0 0.00 0.00 0.00 99 1017.9
20260901094854 51 308 0.0 0.0 0.00 0.00 0.00 99 1018.0
20260901094349 51 313 0.0 0.0 0.00 0.00 0.00 99 1017.9
20260901093843 51 317 0.0 0.0 0.00 0.00 0.00 99 1017.9
20260901093343 50 313 0.0 0.0 0.00 0.00 0.00 99 1017.9
20260901092839 50 316 0.0 0.0 0.00 0.00 0.00 99 1017.8
20260901092334 50 317 0.0 0.0 0.00 0.00 0.00 99 1017.8
20260901091830 50 317 0.0 0.0 0.00 0.00 0.00 99 1018.0
20260901091324 50 317 0.0 0.0 0.00 0.00 0.00 99 1018.0
20260901090819 50 317 0.0 0.0 0.00 0.00 0.00 99 1018.0
20260901090314 50 317 0.0 0.0 0.00 0.00 0.00 99 1018.0
20260901085810 50 317 0.0 0.0 0.00 0.00 0.00 99 1017.8
20260901085306 50 317 0.0 0.0 0.00 0.00 0.00 99 1017.9
20260901084802 50 317 0.0 0.0 0.00 0.00 0.00 99 1018.1
20260901084258 49 317 0.0 0.0 0.00 0.00 0.00 99 1017.9
20260901083757 50 317 0.0 0.0 0.00 0.00 0.00 99 1017.9
20260901083257 50 317 0.0 0.0 0.00 0.00 0.00 99 1017.9
20260901082755 49 317 0.0 0.0 0.00 0.00 0.00 99 1017.9
20260901082251 50 317 0.0 0.0 0.00 0.00 0.00 99 1017.8
20260901081746 50 317 0.0 0.0 0.00 0.00 0.00 99 1018.1
20260901081246 50 317 0.0 0.0 0.00 0.00 0.00 99 1018.1
20260901080741 50 317 0.0 0.0 0.00 0.00 0.00 99 1017.8
20260901080235 50 317 0.0 0.0 0.00 0.00 0.00 99 1018.0
20260901075734 50 319 0.0 0.0 0.00 0.00 0.00 99 1018.0
20260901075230 50 325 0.0 0.0 0.00 0.00 0.00 99 1018.0
20260901074724 49 326 0.0 0.0 0.00 0.00 0.00 99 1018.0
20260901074220 49 326 0.0 0.0 0.00 0.00 0.00 99 1018.0
20260901073716 50 326 0.0 0.0 0.00 0.00 0.00 99 1018.0
20260901073211 50 321 0.0 0.0 0.00 0.00 0.00 99 1018.0
20260901072706 50 316 0.0 0.0 0.00 0.00 0.00 99 1018.1
20260901072201 50 316 0.0 0.0 0.00 0.00 0.00 99 1018.2
20260901071700 50 316 0.0 0.0 0.00 0.00 0.00 99 1018.2
20260901071155 50 316 0.0 0.0 0.00 0.00 0.00 99 1018.4
20260901070649 49 316 0.0 0.0 0.00 0.00 0.00 99 1018.2
20260901070144 50 316 0.0 0.0 0.00 0.00 0.00 99 1018.2
20260901065643 50 316 0.0 0.0 0.00 0.00 0.00 99 1018.0
20260901065138 50 316 0.0 0.0 0.00 0.00 0.00 99 1018.2
20260901064635 50 316 0.0 0.0 0.00 0.00 0.00 99 1018.1
20260901064132 51 316 0.0 0.0 0.00 0.00 0.00 99 1018.0
20260901063629 51 316 0.0 0.0 0.00 0.00 0.00 99 1018.1
20260901063124 51 316 0.0 0.0 0.00 0.00 0.00 99 1018.1
20260901062619 50 315 0.0 0.0 0.00 0.00 0.00 99 1018.2
20260901062115 51 313 0.0 0.0 0.00 0.00 0.00 99 1018.4
20260901061611 51 314 0.0 0.0 0.00 0.00 0.00 99 1018.3
20260901061105 51 313 0.0 0.0 0.00 0.00 0.00 99 1018.2
20260901060600 51 310 0.0 0.0 0.00 0.00 0.00 99 1018.4
20260901060056 51 311 0.0 0.0 0.00 0.00 0.00 99 1018.5
20260901055551 52 315 0.0 0.0 0.00 0.00 0.00 99 1018.3
20260901055048 51 311 0.0 0.0 0.00 0.00 0.00 99 1018.4
20260901054544 51 307 0.0 0.0 0.00 0.00 0.00 99 1018.5
20260901054040 51 319 0.0 0.0 0.00 0.00 0.00 99 1018.6
20260901053536 51 318 0.0 0.0 0.00 0.00 0.00 99 1018.4
20260901053032 51 320 0.0 0.0 0.00 0.00 0.00 99 1018.6
20260901052532 51 322 0.0 0.0 0.00 0.00 0.00 99 1018.3
20260901052031 51 322 0.0 0.0 0.00 0.00 0.00 99 1018.4
20260901051526 51 322 0.0 0.0 0.00 0.00 0.00 99 1018.4
20260901051025 51 322 0.0 0.0 0.00 0.00 0.00 99 1018.2
20260901050521 51 322 0.0 0.0 0.00 0.00 0.00 99 1018.4
20260901050017 51 322 0.0 0.0 0.00 0.00 0.00 99 1018.3
20260901045512 51 322 0.0 0.0 0.00 0.00 0.00 99 1018.4
20260901045012 51 322 0.0 0.0 0.00 0.00 0.00 99 1018.2
20260901044508 51 322 0.0 0.0 0.00 0.00 0.00 99 1018.4
20260901044003 50 322 0.0 0.0 0.00 0.00 0.00 99 1018.3
20260901043459 51 322 0.0 0.0 0.00 0.00 0.00 99 1018.1
20260901042954 51 322 0.0 0.0 0.00 0.00 0.00 99 1018.2
20260901042453 51 322 0.0 0.0 0.00 0.00 0.00 99 1018.1
20260901041949 51 322 0.0 0.0 0.00 0.00 0.00 99 1018.1
20260901041443 51 322 0.0 0.0 0.00 0.00 0.00 99 1018.2
20260901040943 51 322 0.0 0.0 0.00 0.00 0.00 99 1018.2
20260901040433 51 322 0.0 0.0 0.00 0.00 0.00 99 1018.2
20260901035932 52 322 0.0 0.0 0.00 0.00 0.00 99 1018.2
20260901035431 51 322 0.0 0.0 0.00 0.00 0.00 99 1018.2
20260901034929 52 322 0.0 0.0 0.00 0.00 0.00 99 1018.4
20260901034424 52 322 0.0 0.0 0.00 0.00 0.00 99 1018.3
20260901033919 51 322 0.0 0.0 0.00 0.00 0.00 99 1018.5
20260901033418 52 322 0.0 0.0 0.00 0.00 0.00 99 1018.1
20260901032917 52 322 0.0 0.0 0.00 0.00 0.00 99 1018.5
20260901032416 53 328 0.0 0.0 0.00 0.00 0.00 99 1018.4
20260901031912 52 332 0.0 0.0 0.00 0.00 0.00 99 1018.4
20260901031407 52 317 0.0 0.0 0.00 0.00 0.00 99 1018.5
20260901030907 52 318 0.0 0.0 0.00 0.00 0.00 99 1018.4
20260901030402 53 318 0.0 0.0 0.00 0.00 0.00 99 1018.4
20260901025901 53 319 0.0 0.0 0.00 0.00 0.00 99 1018.3
20260901025356 53 319 0.0 0.0 0.00 0.00 0.00 99 1018.4
20260901024851 53 314 0.0 0.0 0.00 0.00 0.00 99 1018.6
20260901024350 53 316 0.0 0.0 0.00 0.00 0.00 99 1018.3
20260901023849 53 313 0.0 0.0 0.00 0.00 0.00 99 1018.5
20260901023344 54 313 0.0 0.0 0.00 0.00 0.00 99 1018.5
20260901022838 53 306 0.0 0.0 0.00 0.00 0.00 99 1018.4
20260901022334 53 316 0.0 0.0 0.00 0.00 0.00 99 1018.3
20260901021830 53 316 0.0 0.0 0.00 0.00 0.00 99 1018.4
20260901021325 53 319 0.0 0.0 0.00 0.00 0.00 99 1018.6
20260901020820 54 317 0.0 0.0 0.00 0.00 0.00 99 1018.5
20260901020315 54 313 0.0 0.0 0.00 0.00 0.00 99 1018.3
20260901015810 54 324 0.0 0.0 0.00 0.00 0.00 99 1018.6
20260901015307 55 324 0.0 0.0 0.00 0.00 0.00 99 1018.5
20260901014805 55 339 0.0 0.0 0.00 0.00 0.00 99 1018.4
20260901014301 55 350 0.0 0.0 0.00 0.00 0.00 99 1018.3
20260901013756 55 315 0.0 0.0 0.00 0.00 0.00 99 1018.4
20260901013252 55 313 0.0 0.0 0.00 0.00 0.00 99 1018.3
20260901012742 55 322 0.0 0.0 0.00 0.00 0.00 98 1018.3
20260901012242 55 322 0.0 0.0 0.00 0.00 0.00 98 1018.1
20260901011737 55 322 0.0 0.0 0.00 0.00 0.00 98 1017.9
20260901011232 55 322 0.0 0.0 0.00 0.00 0.00 98 1018.3
20260901010726 56 323 0.0 0.0 0.00 0.00 0.00 97 1018.1
20260901010221 56 324 0.0 0.0 0.00 0.00 0.00 96 1018.4
20260901005714 56 326 0.0 0.0 0.00 0.00 0.00 96 1018.4
20260901005209 56 339 0.0 0.0 0.00 0.00 0.00 96 1018.2
20260901004709 57 311 0.0 0.0 0.00 0.00 0.00 95 1018.4
20260901004203 57 314 0.0 0.0 0.00 0.00 0.00 94 1018.2
20260901003658 58 315 0.0 0.0 0.00 0.00 0.00 93 1018.3
20260901003157 58 314 0.0 0.0 0.00 0.00 0.00 92 1018.5
20260901002651 59 310 0.0 0.0 0.00 0.00 0.00 91 1018.3
20260901002146 60 282 0.0 0.0 0.00 0.00 0.00 90 1018.2
20260901001642 60 304 0.0 0.0 0.00 0.00 0.00 90 1018.2
20260901001137 59 251 0.9 0.9 0.00 0.00 0.00 90 1018.2
20260901000632 59 316 0.0 0.0 0.00 0.00 0.00 92 1018.2
20260901000130 59 305 0.0 0.0 0.00 0.00 0.00 92 1017.9
20260831235621 60 311 0.0 0.0 0.00 0.00 0.00 90 1018.0
20260831235117 60 310 0.0 0.0 0.00 0.00 0.00 90 1018.2
20260831234616 61 286 0.0 0.0 0.00 0.00 0.00 88 1018.0
20260831234112 62 303 0.0 0.0 0.00 0.00 0.00 87 1018.1
20260831233607 61 6 0.0 0.0 0.00 0.00 0.00 88 1018.2
20260831233102 62 342 0.0 0.0 0.00 0.00 0.00 87 1018.1
20260831232557 62 331 0.0 0.0 0.00 0.00 0.00 85 1018.1
20260831232053 63 341 0.0 0.0 0.00 0.00 0.00 84 1018.1
20260831231549 64 286 0.0 0.0 0.00 0.00 0.00 82 1018.2
20260831231044 64 262 0.0 0.0 0.00 0.00 0.00 81 1018.4
20260831230540 64 325 0.0 0.0 0.00 0.00 0.00 80 1018.2
20260831230039 65 161 0.0 0.0 0.00 0.00 0.00 78 1018.4
20260831225535 66 114 1.7 1.7 0.00 0.00 0.00 76 1018.1
20260831225030 67 320 0.0 0.0 0.00 0.00 0.00 74 1018.0
20260831224525 67 298 0.0 0.0 0.00 0.00 0.00 72 1018.2
20260831224021 67 315 0.0 0.0 0.00 0.00 0.00 71 1018.1
20260831223515 68 45 0.0 0.9 0.00 0.00 0.00 69 1018.3
20260831223012 68 65 0.9 0.9 0.00 0.00 0.00 68 1018.2
20260831222508 68 332 0.9 1.7 0.00 0.00 0.00 68 1018.3
20260831222007 69 251 0.9 0.9 0.00 0.00 0.00 68 1018.1
20260831221504 69 329 0.9 0.9 0.00 0.00 0.00 67 1018.3
20260831220958 70 88 0.0 0.0 0.00 0.00 0.00 66 1018.2
20260831220454 70 81 0.9 0.9 0.00 0.00 0.00 67 1018.2
20260831215949 71 315 0.0 0.9 0.00 0.00 0.00 64 1018.2
20260831215444 71 309 0.0 0.0 0.00 0.00 0.00 65 1018.0
20260831214940 71 9 1.7 2.6 0.00 0.00 0.00 65 1018.2
20260831214437 72 198 1.7 2.6 0.00 0.00 0.00 63 1018.2
20260831213933 72 261 1.7 2.6 0.00 0.00 0.00 61 1018.4
20260831213429 72 292 0.9 0.9 0.00 0.00 0.00 62 1018.2
20260831212929 73 341 0.9 0.9 0.00 0.00 0.00 63 1018.2
20260831212426 73 312 0.9 1.7 0.00 0.00 0.00 60 1018.1
20260831211925 74 204 3.5 3.5 0.00 0.00 0.00 58 1018.1
20260831211420 74 300 0.0 0.0 0.00 0.00 0.00 58 1018.3
20260831210914 75 336 0.9 0.9 0.00 0.00 0.00 56 1018.2
20260831210410 74 300 0.0 0.9 0.00 0.00 0.00 59 1018.3
20260831205905 73 161 1.7 1.7 0.00 0.00 0.00 59 1018.2
20260831205401 74 297 2.6 3.5 0.00 0.00 0.00 59 1018.3
20260831204855 74 45 0.9 0.9 0.00 0.00 0.00 59 1018.2
20260831204354 75 189 1.7 2.6 0.00 0.00 0.00 58 1018.4
20260831203854 75 271 0.0 0.9 0.00 0.00 0.00 59 1018.4
20260831203349 75 254 0.9 1.7 0.00 0.00 0.00 59 1018.6
20260831202847 74 324 0.0 0.0 0.00 0.00 0.00 63 1018.3
20260831202342 73 139 2.6 2.6 0.00 0.00 0.00 61 1018.4
20260831201836 74 306 1.7 2.6 0.00 0.00 0.00 60 1018.4
20260831201335 74 296 1.7 1.7 0.00 0.00 0.00 59 1018.5
20260831200831 75 213 1.7 2.6 0.00 0.00 0.00 59 1018.3
20260831200326 75 146 0.9 0.9 0.00 0.00 0.00 57 1018.2
20260831195821 75 243 0.9 0.9 0.00 0.00 0.00 55 1018.6
20260831195317 74 198 0.9 1.7 0.00 0.00 0.00 55 1018.4
20260831194813 75 187 1.7 1.7 0.00 0.00 0.00 52 1018.5
20260831194308 75 292 0.9 1.7 0.00 0.00 0.00 53 1018.5
20260831193806 76 172 2.6 5.2 0.00 0.00 0.00 51 1018.7
20260831193302 76 227 2.6 3.5 0.00 0.00 0.00 50 1018.7
20260831192756 75 272 2.6 2.6 0.00 0.00 0.00 50 1018.6
20260831192252 76 177 1.7 2.6 0.00 0.00 0.00 50 1018.5
20260831191747 77 270 0.0 0.0 0.00 0.00 0.00 50 1018.7
20260831191244 79 292 0.0 0.0 0.00 0.00 0.00 42 1018.5
20260831190738 77 207 1.7 1.7 0.00 0.00 0.00 42 1018.5
20260831190233 78 84 1.7 2.6 0.00 0.00 0.00 42 1018.5
20260831185733 79 70 0.9 0.9 0.00 0.00 0.00 41 1018.6
20260831185229 79 256 0.0 0.0 0.00 0.00 0.00 39 1018.8
20260831184727 78 292 0.9 1.7 0.00 0.00 0.00 40 1018.7
20260831184224 77 256 1.7 2.6 0.00 0.00 0.00 41 1018.7
20260831183723 77 268 1.7 2.6 0.00 0.00 0.00 39 1018.9
20260831183218 78 325 2.6 2.6 0.00 0.00 0.00 38 1019.0
20260831182717 77 325 0.0 0.9 0.00 0.00 0.00 39 1018.8
20260831182213 77 203 0.9 0.9 0.00 0.00 0.00 38 1018.9
20260831181712 78 29 0.9 0.9 0.00 0.00 0.00 37 1019.0
20260831181208 77 299 0.9 1.7 0.00 0.00 0.00 39 1018.9
20260831180703 77 259 0.0 0.0 0.00 0.00 0.00 46 1019.1
20260831180158 76 47 0.9 1.7 0.00 0.00 0.00 44 1019.1
20260831175657 76 189 0.9 0.9 0.00 0.00 0.00 44 1019.0
20260831175154 76 254 0.9 0.9 0.00 0.00 0.00 43 1019.2
20260831174654 77 302 0.9 1.7 0.00 0.00 0.00 46 1019.4
20260831174149 76 316 0.9 0.9 0.00 0.00 0.00 44 1019.3
20260831173648 76 338 1.7 1.7 0.00 0.00 0.00 45 1019.4
20260831173144 75 301 0.9 0.9 0.00 0.00 0.00 51 1019.4
20260831172643 75 30 1.7 2.6 0.00 0.00 0.00 46 1019.3
20260831172138 75 45 2.6 2.6 0.00 0.00 0.00 45 1019.4
20260831171633 76 341 2.6 2.6 0.00 0.00 0.00 49 1019.5
20260831171131 76 59 1.7 2.6 0.00 0.00 0.00 46 1019.5
20260831170627 76 294 1.7 2.6 0.00 0.00 0.00 46 1019.7
20260831170124 75 304 0.0 0.0 0.00 0.00 0.00 50 1019.6
20260831165619 75 254 0.9 0.9 0.00 0.00 0.00 48 1019.8
20260831165116 74 232 1.7 1.7 0.00 0.00 0.00 46 1019.9
20260831164611 75 272 0.0 0.0 0.00 0.00 0.00 46 1019.7
20260831164107 75 264 0.0 0.9 0.00 0.00 0.00 47 1019.8
20260831163601 74 237 1.7 1.7 0.00 0.00 0.00 47 1020.0
20260831163057 74 298 1.7 2.6 0.00 0.00 0.00 46 1020.1
20260831162556 73 25 0.0 0.9 0.00 0.00 0.00 47 1020.1
20260831162054 73 229 1.7 1.7 0.00 0.00 0.00 47 1020.2
20260831161550 74 263 2.6 3.5 0.00 0.00 0.00 47 1020.2
20260831161046 73 300 0.0 0.9 0.00 0.00 0.00 52 1020.0
20260831160539 74 304 2.6 3.5 0.00 0.00 0.00 46 1020.0
20260831160035 73 5 0.9 1.7 0.00 0.00 0.00 50 1020.1
20260831155530 73 233 1.7 2.6 0.00 0.00 0.00 50 1020.1
20260831155024 72 323 1.7 1.7 0.00 0.00 0.00 52 1020.2
20260831154521 71 269 1.7 2.6 0.00 0.00 0.00 54 1020.2
20260831154020 72 42 1.7 2.6 0.00 0.00 0.00 51 1020.4
20260831153521 71 87 2.6 2.6 0.00 0.00 0.00 52 1020.3
20260831153018 72 49 2.6 2.6 0.00 0.00 0.00 50 1020.5
20260831152513 71 348 1.7 2.6 0.00 0.00 0.00 55 1020.5
20260831152008 71 349 2.6 5.2 0.00 0.00 0.00 54 1020.4
20260831151508 70 334 0.0 0.0 0.00 0.00 0.00 53 1020.6
20260831151002 71 345 0.9 1.7 0.00 0.00 0.00 54 1020.7
20260831150458 70 351 1.7 1.7 0.00 0.00 0.00 56 1020.8
20260831145958 71 79 1.7 2.6 0.00 0.00 0.00 52 1020.7
20260831145453 71 353 0.9 0.9 0.00 0.00 0.00 54 1020.6
20260831144949 71 328 0.9 1.7 0.00 0.00 0.00 61 1020.8
20260831144444 70 267 1.7 1.7 0.00 0.00 0.00 58 1021.0
20260831143940 70 331 0.0 0.0 0.00 0.00 0.00 58 1021.0
20260831143434 69 216 1.7 1.7 0.00 0.00 0.00 58 1020.9
20260831142930 69 256 0.0 0.9 0.00 0.00 0.00 60 1021.0
20260831142426 69 57 2.6 3.5 0.00 0.00 0.00 57 1020.8
20260831141920 69 282 1.7 1.7 0.00 0.00 0.00 57 1020.8
20260831141414 68 71 1.7 2.6 0.00 0.00 0.00 55 1020.7